This demonstration page uses our WeatherBlox Daily Observations layout. Learn more.

Left ArrowRight Arrow

39.29038, -76.61219

Hourly Observations for September 2, 2020

Temp ( °F °C ) Dew Point ( °F °C ) Humidity (%) Winds ( mph kmh ) Pressure ( in mb ) Visibility ( mi km ) Precip ( " mm )
12:54 am 00:54 Cloudy 73 22.8 70 21.1 90 90 E 6 9 30.01 1016 7 11 0.01 0.25
1:54 am 01:54 Cloudy 74 23.3 70 21.1 88 88 ESE 6 9 29.99 1016 10 16 0.00 0.00
2:54 am 02:54 Cloudy 73 22.8 70 21.1 90 90 E 5 7 29.97 1015 10 16 0.00 0.00
3:54 am 03:54 Cloudy with Mist and Fog 73 22.8 71 21.7 94 94 Calm 29.96 1015 6 10 0.00 0.00
4:54 am 04:54 Cloudy with Mist and Fog 74 23.3 71 21.7 91 91 Calm 29.95 1014 6 10 0.00 0.00
5:16 am 05:16 Cloudy with Mist and Fog 74 23.3 71 21.7 91 91 SE 3 6 29.94 1014 6 10 0.00 0.00
5:54 am 05:54 Cloudy with Mist and Fog 74 23.3 71 21.7 91 91 Calm 29.94 1014 6 10 0.00 0.00
6:38 am 06:38 Cloudy with Mist and Fog 74 23.3 71 21.7 91 91 ESE 3 6 29.93 1014 6 10 0.00 0.00
6:54 am 06:54 Cloudy with Mist and Fog 74 23.3 71 21.7 91 91 Calm 29.93 1014 6 10 0.00 0.00
7:01 am 07:01 Cloudy with Mist and Fog 74 23.3 71 21.7 91 91 VRB 3 6 29.93 1014 6 10 0.00 0.00
7:54 am 07:54 Cloudy with Mist and Fog 75 23.9 72 22.2 90 90 SSE 3 6 29.92 1013 6 10 0.00 0.00
8:54 am 08:54 Cloudy 76 24.4 72 22.2 88 88 VRB 3 6 29.92 1013 8 13 0.00 0.00
9:54 am 09:54 Cloudy with Drizzle 77 25 73 22.8 88 88 VRB 7 11 29.92 1013 6 10 0.00 0.00
10:47 am 10:47 Cloudy 79 26.1 73 22.8 82 82 SW 5 7 29.91 1013 10 16 0.00 0.00
10:54 am 10:54 Cloudy 79 26.1 73 22.8 82 82 SSW 6 9 29.91 1013 10 16 0.00 0.00
11:54 am 11:54 Mostly Cloudy 83 28.3 72 22.2 70 70 SW 8 13 29.89 1012 10 16 0.00 0.00
12:54 pm 12:54 Mostly Cloudy 84 28.9 73 22.8 70 70 SW 6 9 29.87 1012 10 16 0.00 0.00
1:54 pm 13:54 Mostly Cloudy 87 30.6 74 23.3 65 65 SSW 6 9 29.84 1011 10 16 0.00 0.00
2:29 pm 14:29 Mostly Cloudy 87 30.6 73 22.8 63 63 SSW 9 15 29.83 1010 10 16 0.00 0.00
2:54 pm 14:54 Mostly Cloudy 86 30 73 22.8 65 65 VRB 6 9 29.82 1010 10 16 0.00 0.00
3:54 pm 15:54 Mostly Cloudy 87 30.6 73 22.8 63 63 SSW 7 11 29.81 1010 10 16 0.00 0.00
4:54 pm 16:54 Mostly Cloudy 87 30.6 73 22.8 63 63 SW 7 11 29.79 1009 10 16 0.00 0.00
5:54 pm 17:54 Mostly Cloudy 86 30 75 23.9 70 70 SSE 7 11 29.78 1008 10 16 0.00 0.00
6:54 pm 18:54 Mostly Cloudy 85 29.4 75 23.9 72 72 VRB 5 7 29.77 1008 10 16 0.00 0.00
7:54 pm 19:54 Mostly Cloudy 83 28.3 75 23.9 77 77 S 9 15 29.78 1008 10 16 0.00 0.00
8:15 pm 20:15 Mostly Cloudy with Thunderstorms 82 27.8 76 24.4 82 82 SSW 8 13 29.79 1009 10 16 0.00 0.00
8:36 pm 20:36 Cloudy with Thunderstorms 77 25 72 22.2 85 85 WSW 16 26 29.81 1010 5 8 0.07 1.78
8:43 pm 20:43 Cloudy with Light Rain 76 24.4 72 22.2 88 88 W 15 24 29.81 1010 4 6 0.09 2.29
8:54 pm 20:54 Cloudy with Light Rain 75 23.9 72 22.2 90 90 W 9 15 29.82 1010 8 13 0.12 3.05
9:54 pm 21:54 Partly Cloudy 76 24.4 71 21.7 85 85 SW 3 6 29.82 1010 10 16 0.00 0.00
10:54 pm 22:54 Partly Cloudy 75 23.9 72 22.2 90 90 W 5 7 29.82 1010 10 16 0.00 0.00
11:54 pm 23:54 Partly Cloudy 76 24.4 73 22.8 91 91 W 6 9 29.83 1010 10 16 0.00 0.00

Powered by AerisWeather